National Weather Service Raw Text Product

Displaying AFOS PIL: RWRIA Received: 2018-06-14 10:00 UTC


824 
ASUS43 KDMX 141006
RWRIA 

WEATHER ROUNDUP FOR IOWA
NATIONAL WEATHER SERVICE DES MOINES IA
500 AM CDT THU JUN 14 2018

NOTE: "FAIR" INDICATES FEW OR NO CLOUDS BELOW 12,000 FEET WITH NO
SIGNIFICANT WEATHER AND/OR OBSTRUCTIONS TO VISIBILITY.

* - THESE STATIONS ARE NOT NWS STATIONS...THUS NOT UNDER NWS
QUALITY CONTROL.  THEY ALSO DO NOT REPORT WEATHER SUCH 
AS PRECIPITATION OR FOG.  

IAZ001>003-012>014-020>022-031>034-043>046-141100-
   NORTHWEST IOWA
  
CITY           SKY/WX    TMP DP  RH WIND       PRES   REMARKS
CARROLL *      CLOUDY    64  59  82 SE9       29.91F                  
CHEROKEE *     TSTM      63  60  91 E8        29.88F                  
DENISON *      CLOUDY    70  55  60 S13G22    29.89F                  
LE MARS *      CLOUDY   N/A N/A N/A SE10G17   29.86R                  
ORANGE CITY *  CLOUDY    66  61  82 SE7       29.86F                  
SHELDON *      LGT RAIN  61  61 100 N16G28    29.90F                  
SIOUX CITY     PTCLDY    66  57  72 SE6       29.84F                  
SPENCER        LGT RAIN  63  57  81 SE13      29.92S                  
STORM LAKE *   LGT RAIN  63  59  88 SE18G25   29.87F                  
$$
 
IAZ055>058-069>071-079>083-090>094-141100-
   SOUTHWEST IOWA
  
CITY           SKY/WX    TMP DP  RH WIND       PRES   REMARKS
ATLANTIC *     CLOUDY    68  57  68 S5        29.92F                  
AUDUBON *      CLOUDY    70  57  64 S10       29.93F                  
CLARINDA *     CLOUDY    68  55  64 S6        29.95R                  
COUNCIL BLFS * PTCLDY    66  63  88 SE8       29.90F                  
CRESTON *      CLOUDY    66  55  68 SE9       29.97F                  
HARLAN  *      CLOUDY    68  55  64 SE8       29.94F                  
LAMONI         CLOUDY    67  54  63 SE7       29.98S                  
RED OAK *      CLOUDY    68  55  64 MISG      29.92S                  
SHENANDOAH *   CLEAR     70  57  64 SE7       29.91S                  
$$
 
IAZ047>049-059>061-072>074-084-141100-
   CENTRAL IOWA
  
CITY           SKY/WX    TMP DP  RH WIND       PRES   REMARKS
AMES           TSTM      61  32  33 SE21G35   29.96F                  
ANKENY *       RAIN      68  54  60 E14G35    30.02R                  
BOONE *        CLOUDY    61  57  88 SE20      29.96F                  
CHARITON *     CLOUDY    66  55  68 SE10      29.98S                  
DES MOINES     CLOUDY    69  54  58 N15       29.98R THUNDER          
GRINNELL*      CLOUDY    66  52  60 NW17G23   30.06R                  
KNOXVILLE *    CLOUDY    66  52  59 SE13      29.96F                  
MARSHALLTOWN   LGT RAIN  63  57  81 S13       30.00F                  
NEWTON *       CLOUDY    66  52  59 N18G43    30.02R                  
PELLA *        CLOUDY    64  54  68 SE12      29.99S                  
PERRY *        CLOUDY    65  59  79 E10       29.96F                  
$$
 
IAZ004>006-015-016-023>025-035-036-141100-
   NORTH CENTRAL IOWA
  
CITY           SKY/WX    TMP DP  RH WIND       PRES   REMARKS
ALGONA *       CLOUDY    66  54  63 SE9       29.94F                  
CLARION *      CLOUDY    66  54  63 SE14      29.94F                  
ESTHERVILLE    CLOUDY    64  54  69 SE10      29.92F                  
FORT DODGE *   CLOUDY    63  57  81 SE14G21   29.93F                  
MASON CITY     CLOUDY    62  56  80 SE9       29.98F                  
FOREST CITY *  MOCLDY    63  55  77 E8        29.95F                  
WEBSTER CITY * CLOUDY    61  59  94 SE16G24   29.93F                  
IOWA FALLS *   FAIR      64  56  77 SE9       30.01F                  
$$

IAZ007>011-017>019-026>030-037>042-050>054-066-141100-
   NORTHEAST IOWA
  
CITY           SKY/WX    TMP DP  RH WIND       PRES   REMARKS
CEDAR RAPIDS   FAIR      62  57  83 S3        30.04R                  
CHARLES CITY * MOCLDY    61  55  82 SE7       30.01F                  
CLINTON *      FAIR      61  59  93 E6        30.06F                  
DECORAH *      FAIR      63  55  77 CALM      30.03S                  
DUBUQUE        FAIR      60  52  74 CALM      30.06F                  
MONTICELLO *   FAIR      61  59  94 CALM      30.03F                  
OELWEIN *      FAIR      61  57  88 E7        30.02F                  
WATERLOO       FAIR      59  56  89 CALM      30.01F                  
$$
 
IAZ064-065-067-068-078-141100-
   EAST CENTRAL IOWA
  
CITY           SKY/WX    TMP DP  RH WIND       PRES   REMARKS
DAVENPORT      FAIR      60  56  86 E5        30.06F                  
IOWA CITY      FAIR      64  58  80 CALM      30.05R                  
MT. PLEASANT * LGT RAIN  59  54  82 CALM      30.05F                  
MUSCATINE *      N/A    N/A N/A N/A MISG        N/A                   
QUAD CITIES    FAIR      60  57  89 E6        30.04F                  
$$
 
IAZ062-063-075>077-085>089-095>099-141100-
   SOUTHEAST IOWA
  
CITY           SKY/WX    TMP DP  RH WIND       PRES   REMARKS
BURLINGTON     CLOUDY    63  53  70 SE3       30.05S                  
FAIRFIELD *    MOCLDY    63  54  72 SE9       30.01F                  
FORT MADISON * CLOUDY    61  54  77 E5        30.05F                  
KEOKUK *       CLOUDY    63  54  72 E3        30.04F                  
OSKALOOSA *    FAIR      62  55  77 SE10      30.02S                  
CENTERVILLE *    N/A     64  52  63 CALM      30.02S                  
OTTUMWA        MOCLDY    65  53  65 SE9       30.02F                  
WASHINGTON *   PTCLDY    63  55  77 S9        30.04F                  
$$

ABBREVIATIONS USED IN REMARKS
   TC - TEMPERATURES IN CELSIUS
  WCI - WIND CHILL INDEX
   HX - HEAT INDEX
  VSB - VISIBILITY  
$$

  

130 
ASUS43 KDMX 141001
RWRIA 

WEATHER ROUNDUP FOR IOWA
NATIONAL WEATHER SERVICE DES MOINES IA
500 AM CDT THU JUN 14 2018

NOTE: "FAIR" INDICATES FEW OR NO CLOUDS BELOW 12,000 FEET WITH NO
SIGNIFICANT WEATHER AND/OR OBSTRUCTIONS TO VISIBILITY.

* - THESE STATIONS ARE NOT NWS STATIONS...THUS NOT UNDER NWS
QUALITY CONTROL.  THEY ALSO DO NOT REPORT WEATHER SUCH 
AS PRECIPITATION OR FOG.  

IAZ001>003-012>014-020>022-031>034-043>046-141100-
   NORTHWEST IOWA
  
CITY           SKY/WX    TMP DP  RH WIND       PRES   REMARKS
CARROLL *      CLOUDY    64  59  82 SE9       29.91F                  
CHEROKEE *     TSTM      63  60  91 E8        29.88F                  
DENISON *      CLOUDY    70  55  60 S13G22    29.89F                  
LE MARS *      CLOUDY   N/A N/A N/A SE10G17   29.86R                  
ORANGE CITY *  CLOUDY    66  61  82 SE7       29.86F                  
SHELDON *      LGT RAIN  61  61 100 N16G28    29.90F                  
SIOUX CITY     PTCLDY    66  57  72 SE6       29.84F                  
SPENCER        LGT RAIN  63  57  81 SE13      29.92S                  
STORM LAKE *   LGT RAIN  63  59  88 SE18G25   29.87F                  
$$
 
IAZ055>058-069>071-079>083-090>094-141100-
   SOUTHWEST IOWA
  
CITY           SKY/WX    TMP DP  RH WIND       PRES   REMARKS
ATLANTIC *     CLOUDY    68  57  68 S5        29.92F                  
AUDUBON *      CLOUDY    70  57  64 S10       29.93F                  
CLARINDA *     CLOUDY    68  55  64 S6        29.95R                  
COUNCIL BLFS * PTCLDY    66  63  88 SE8       29.90F                  
CRESTON *      CLOUDY    66  55  68 SE9       29.97F                  
HARLAN  *      CLOUDY    68  55  64 SE8       29.94F                  
LAMONI         CLOUDY    67  54  63 SE7       29.98S                  
RED OAK *      CLOUDY    68  55  64 MISG      29.92S                  
SHENANDOAH *   CLEAR     70  57  64 SE7       29.91S                  
$$
 
IAZ047>049-059>061-072>074-084-141100-
   CENTRAL IOWA
  
CITY           SKY/WX    TMP DP  RH WIND       PRES   REMARKS
AMES           TSTM      60  32  34 SE24G35   29.97F                  
ANKENY *       RAIN      68  54  60 E14G35    30.02R                  
BOONE *        CLOUDY    61  57  88 SE20      29.96F                  
CHARITON *     CLOUDY    66  55  68 SE10      29.98S                  
DES MOINES     CLOUDY    69  54  58 N15       29.98R THUNDER          
GRINNELL*      CLOUDY    66  52  60 NW17G23   30.06R                  
KNOXVILLE *    CLOUDY    66  52  59 SE13      29.96F                  
MARSHALLTOWN   LGT RAIN  63  57  81 S13       30.00F                  
NEWTON *       CLOUDY    66  52  59 N18G43    30.02R                  
PELLA *        CLOUDY    64  54  68 SE12      29.99S                  
$$
 
IAZ004>006-015-016-023>025-035-036-141100-
   NORTH CENTRAL IOWA
  
CITY           SKY/WX    TMP DP  RH WIND       PRES   REMARKS
ALGONA *       CLOUDY    66  54  63 SE9       29.94F                  
CLARION *      CLOUDY    66  54  63 SE14      29.94F                  
ESTHERVILLE    CLOUDY    64  54  69 SE10      29.92F                  
FORT DODGE *   CLOUDY    63  57  81 SE14G21   29.93F                  
MASON CITY     CLOUDY    62  56  80 SE9       29.98F                  
FOREST CITY *  MOCLDY    63  55  77 E8        29.95F                  
WEBSTER CITY * CLOUDY    61  59  94 SE16G24   29.93F                  
IOWA FALLS *   FAIR      64  56  77 SE9       30.01F                  
$$

IAZ007>011-017>019-026>030-037>042-050>054-066-141100-
   NORTHEAST IOWA
  
CITY           SKY/WX    TMP DP  RH WIND       PRES   REMARKS
CEDAR RAPIDS   FAIR      62  57  83 S3        30.04R                  
CHARLES CITY * MOCLDY    61  55  82 SE7       30.01F                  
CLINTON *      FAIR      61  59  93 E6        30.06F                  
DECORAH *      FAIR      63  55  77 CALM      30.03S                  
DUBUQUE        FAIR      60  52  74 CALM      30.06F                  
MONTICELLO *   FAIR      61  59  94 CALM      30.03F                  
OELWEIN *      FAIR      61  57  88 E7        30.02F                  
WATERLOO       FAIR      59  56  89 CALM      30.01F                  
$$
 
IAZ064-065-067-068-078-141100-
   EAST CENTRAL IOWA
  
CITY           SKY/WX    TMP DP  RH WIND       PRES   REMARKS
DAVENPORT      FAIR      60  56  86 E5        30.06F                  
IOWA CITY      FAIR      64  58  80 CALM      30.05R                  
MUSCATINE *      N/A    N/A N/A N/A MISG        N/A                   
QUAD CITIES    FAIR      60  57  89 E6        30.04F                  
$$
 
IAZ062-063-075>077-085>089-095>099-141100-
   SOUTHEAST IOWA
  
CITY           SKY/WX    TMP DP  RH WIND       PRES   REMARKS
BURLINGTON     CLOUDY    63  53  70 SE3       30.05S                  
FAIRFIELD *    MOCLDY    63  54  72 SE9       30.01F                  
FORT MADISON * CLOUDY    61  54  77 E5        30.05F                  
KEOKUK *       CLOUDY    63  54  72 E3        30.04F                  
OSKALOOSA *    FAIR      62  55  77 SE10      30.02S                  
CENTERVILLE *    N/A     64  52  63 CALM      30.02S                  
OTTUMWA        MOCLDY    65  53  65 SE9       30.02F                  
WASHINGTON *   PTCLDY    63  55  77 S9        30.04F                  
$$

ABBREVIATIONS USED IN REMARKS
   TC - TEMPERATURES IN CELSIUS
  WCI - WIND CHILL INDEX
   HX - HEAT INDEX
  VSB - VISIBILITY  
$$